カタログに戻る

ATLAS 5 CENTAUR DEB

運用中HEO
NORAD 46661·DEBRIS·🇺🇸 United States

打ち上げ Oct 17, 2018 から Cape Canaveral Space Force Station

Loading…

次のパス (今後24時間)

TLE

最新Source: Space-Track

元期: Sep 14, 2026, 21:04 UTC

1 46661U 18079CP  26257.87794409 -.00000178  00000-0  00000-0 0  9995
2 46661  13.6023  29.3003 4507422 322.3494  13.3156  1.82949301 39668

AllMySatでATLAS 5 CENTAUR DEBをリアルタイム追跡

Download on the App Store